Location: Newark
(39.0622°N, 106.5590°E)
Time: 00:58:36
(UTC+00:00)

Vanguard 2 Rocket - Pass Details

Date: 24 January 2020
Orbit: 554 x 3327 km, 32.9° (Epoch: 20 February)

Event Time Altitude Azimuth Distance (km) Brightness Sun altitude
Rises 00:04:29 0° 258° (WSW) 3,127 9.2 -1.3°
Reaches altitude 10° 00:06:30 10° 253° (WSW) 2,387 8.6 -1.0°
Maximum altitude 00:11:54 53° 177° (S) 1,327 8.0 0.0°
Drops below altitude 10° 00:21:13 10° 104° (ESE) 4,025 12.1 1.6°
Sets 00:25:37 0° 100° (E) 5,497 12.7 2.4°
